User: anonymous   Login
Location: Bavegemberg
(50.9500°N, 3.8833°E)
Time: 04:07:46
(UTC+00:00)
Language:

Cosmos 1455 - Orbit

View from above orbital plane
View from above orbital plane
View from above satellite
View from above satellite

Ground track
Ground track

The orbit data is extracted from the following two-line orbital elements,

1 14032U 83037A   24194.56207645  .00018878  00000-0  49361-3 0  9994
2 14032  82.5062  41.4435 0009443 256.3661 103.6532 15.38580457253652
Epoch (UTC): 12 July 2024 13:29:23
Eccentricity: 0.0009443
inclination: 82.5062°
perigee height: 444 km
apogee height: 457 km
right ascension of ascending node: 41.4435°
argument of perigee: 256.3661°
revolutions per day: 15.38580457
mean anomaly at epoch: 103.6532°
orbit number at epoch: 25365

The dashed part of the orbit path shows where the satellite is in the earth's shadow,  

DLR